TimeCST,TemperatureF,Dew PointF,Humidity,Sea Level PressureIn,VisibilityMPH,Wind Direction,Wind SpeedMPH,Gust SpeedMPH,PrecipitationIn,Events,Conditions,WindDirDegrees,DateUTC
12:05 AM,32.0,24.8,75,29.95,2.5,West,19.6,29.9,0.00,Snow,Light Snow,280,2013-03-06 06:05:00
12:12 AM,32.0,24.8,75,29.95,3.0,West,16.1,29.9,0.00,Snow,Light Snow,280,2013-03-06 06:12:00
12:54 AM,32.0,26.1,79,29.98,3.0,WNW,18.4,25.3,0.00,Snow,Light Snow,290,2013-03-06 06:54:00
1:54 AM,33.1,25.0,72,30.00,10.0,WNW,17.3,32.2,0.00,,Overcast,300,2013-03-06 07:54:00
2:54 AM,32.0,25.0,75,30.02,6.0,WNW,20.7,31.1,0.00,Snow,Light Snow,300,2013-03-06 08:54:00
3:54 AM,32.0,25.0,75,30.05,8.0,NW,20.7,29.9,0.00,Snow,Light Snow,310,2013-03-06 09:54:00
4:54 AM,32.0,25.0,75,30.09,10.0,NW,18.4,29.9,0.00,,Overcast,310,2013-03-06 10:54:00
5:54 AM,32.0,25.0,75,30.13,10.0,NW,12.7,28.8,N/A,,Overcast,310,2013-03-06 11:54:00
6:54 AM,32.0,25.0,75,30.17,10.0,NW,16.1,25.3,N/A,,Overcast,310,2013-03-06 12:54:00
7:54 AM,32.0,25.0,75,30.20,10.0,NW,13.8,23.0,N/A,,Overcast,310,2013-03-06 13:54:00
8:54 AM,33.1,25.0,72,30.24,10.0,NW,17.3,23.0,N/A,,Overcast,310,2013-03-06 14:54:00
9:54 AM,33.1,26.1,75,30.26,10.0,NW,10.4,20.7,N/A,,Overcast,310,2013-03-06 15:54:00
10:54 AM,33.1,25.0,72,30.29,10.0,NW,16.1,21.9,N/A,,Overcast,310,2013-03-06 16:54:00
11:54 AM,33.1,25.0,72,30.30,10.0,NNW,13.8,23.0,N/A,,Overcast,330,2013-03-06 17:54:00
12:54 PM,33.1,25.0,72,30.30,10.0,NNW,12.7,20.7,N/A,,Overcast,330,2013-03-06 18:54:00
1:54 PM,34.0,25.0,70,30.30,10.0,NW,11.5,-,N/A,,Overcast,310,2013-03-06 19:54:00
2:54 PM,33.1,25.0,72,30.32,10.0,NW,11.5,-,N/A,,Overcast,310,2013-03-06 20:54:00
3:54 PM,33.1,24.1,70,30.32,10.0,NNW,11.5,18.4,N/A,,Overcast,330,2013-03-06 21:54:00
4:54 PM,33.1,24.1,70,30.34,10.0,NNW,10.4,-,N/A,,Overcast,330,2013-03-06 22:54:00
5:54 PM,33.1,24.1,70,30.35,10.0,NNW,9.2,17.3,N/A,,Overcast,330,2013-03-06 23:54:00
6:54 PM,33.1,24.1,70,30.36,10.0,NNW,8.1,-,N/A,,Overcast,330,2013-03-07 00:54:00
7:54 PM,32.0,24.1,73,30.36,10.0,NW,5.8,-,N/A,,Overcast,320,2013-03-07 01:54:00
8:54 PM,32.0,23.0,69,30.36,10.0,NNW,5.8,-,N/A,,Overcast,340,2013-03-07 02:54:00
9:54 PM,32.0,24.1,73,30.36,10.0,North,5.8,-,N/A,,Overcast,360,2013-03-07 03:54:00
10:54 PM,32.0,24.1,73,30.36,10.0,Calm,Calm,-,N/A,,Overcast,0,2013-03-07 04:54:00
11:54 PM,30.9,23.0,72,30.35,10.0,NW,4.6,-,N/A,,Overcast,320,2013-03-07 05:54:00